Location: Presov
(49.0000°N, 21.2500°E)
Time: 23:50:39
(UTC+02:00)

Transit 2A Rocket - Pass Details

Date: 20 April 2021
Orbit: 594 x 908 km, 66.7° (Epoch: 05 May)

Event Time Altitude Azimuth Distance (km) Brightness Sun altitude
Rises 16:11:38 0° 217° (SW) 2,940 8.8 31.8°
Reaches altitude 10° 16:13:58 10° 218° (SW) 1,999 8.2 31.4°
Maximum altitude 16:18:26 81° 305° (NW) 619 5.2 30.8°
Drops below altitude 10° 16:22:46 10° 34° (NE) 1,939 6.8 30.1°
Sets 16:25:00 0° 36° (NE) 2,843 7.5 29.7°
